Location: Altoona
(40.5167°N, 78.4000°W)
Time: 18:21:43
(UTC-04:00)

Okean 2 - Pass Details

Date: 21 August 2017
Orbit: 561 x 579 km, 82.5° (Epoch: 21 September)

Event Time Altitude Azimuth Distance (km) Brightness Sun altitude
Rises 21:17:41 0° 1° (N) 2,761 7.3 -14.1°
Reaches altitude 10° 21:20:02 10° 11° (N) 1,859 6.2 -14.4°
Maximum altitude 21:23:46 34° 77° (ENE) 941 4.1 -15.1°
Enters shadow 21:25:00 28° 113° (ESE) 1,077 4.2 -15.3°
